Location: Bear Cove Picnic Area
(37.2505°N, 119.1810°W)
Time: 13:08:29
(UTC+00:00)

Daily predictions for brighter satellites

Satellite Brightness Start Highest point End
(mag) Time Altitude Azimuth Time Altitude Azimuth Time Altitude Azimuth
STARLINK-1017 3.8 12:04:11 50° WNW 12:04:40 53° NW 12:08:45 10° NE
Lacrosse 5 rocket 3.0 12:05:34 18° NW 12:05:34 18° NW 12:08:18 10° N
Cosmos 1908 Rocket 3.6 12:01:21 10° NNW 12:05:37 53° W 12:06:17 48° SW
STARLINK-81 3.8 12:06:44 47° WNW 12:07:13 51° NW 12:11:10 10° NE
STARLINK-54 4.0 12:08:32 42° WNW 12:09:05 44° NW 12:12:58 10° NE
STARLINK-77 3.9 12:09:55 43° WNW 12:10:33 47° NW 12:14:28 10° NE
CZ-2C R/B 2.2 12:06:07 10° NNE 12:10:44 81° E 12:14:44 13° S
STARLINK-25 4.0 12:11:31 41° WNW 12:12:13 46° NW 12:16:07 10° NE
Cosmos 2142 Rocket 4.4 12:06:29 10° N 12:12:50 75° W 12:19:06 10° S
Cosmos 1544 4.2 12:10:10 10° N 12:13:40 44° E 12:17:09 10° SSE
STARLINK-71 4.2 12:13:20 36° WNW 12:14:05 40° NW 12:17:54 10° NE
STARLINK-79 4.1 12:14:41 37° WNW 12:15:31 43° NW 12:19:23 10° NE
Cosmos 2333 Rocket 2.7 12:10:51 10° NW 12:15:57 36° WSW 12:21:01 10° S
Okean 1-7 3.3 12:15:09 39° WSW 12:16:04 45° W 12:20:17 10° N
STARLINK-78 4.2 12:16:19 35° WNW 12:17:13 41° NW 12:21:03 10° NE
GPS 2-04 Rocket1 2.7 12:16:50 46° WSW 12:17:36 56° S 12:21:15 10° ESE
STARLINK-57 4.3 12:18:01 33° WNW 12:18:59 38° NW 12:22:47 10° NE
Cosmos 1515 3.5 12:17:04 24° SSW 12:19:17 79° W 12:23:05 10° N
STARLINK-1048 4.3 12:18:31 33° WNW 12:19:39 41° NW 12:23:35 10° NE
STARLINK-49 4.3 12:19:27 32° WNW 12:20:30 39° NW 12:24:19 10° NE
STARLINK-27 4.3 12:21:03 31° WNW 12:22:11 38° NW 12:25:58 10° NE
Cosmos 1743 3.0 12:19:08 10° NNW 12:22:50 44° W 12:24:45 24° SSW
STARLINK-74 4.4 12:22:38 30° WNW 12:23:49 37° NW 12:27:35 10° NNE
IDEFIX/ARIANE 42P 3.6 12:19:46 10° NNW 12:24:02 27° WNW 12:25:10 24° W
Okean 1 3.9 12:23:56 32° W 12:24:19 33° WNW 12:27:57 10° NNW
STARLINK-1049 4.4 12:23:19 29° WNW 12:24:39 37° NW 12:28:32 10° NNE
STARLINK-1027 4.4 12:22:44 19° SSW 12:25:29 49° SE 12:29:36 10° ENE
STARLINK-39 4.4 12:24:14 28° WNW 12:25:30 36° NW 12:29:15 10° NNE
STARLINK-31 4.5 12:25:50 27° WNW 12:27:10 35° NW 12:30:53 10° NNE
USA 238 DEB 3.6 12:21:55 17° SW 12:27:10 83° WNW 12:34:02 10° NNE
USA 238 3.6 12:22:00 17° SW 12:27:17 84° WNW 12:34:09 10° NNE
CZ-4B R/B 3.1 12:29:01 20° WNW 12:29:01 20° WNW 12:30:32 10° NW
Cosmos 1689 Rocket 2.2 12:28:24 17° S 12:30:30 48° W 12:33:25 10° NNW
Cosmos 1975 2.7 12:26:40 10° NNW 12:30:39 72° W 12:34:38 10° S
CZ-4B R/B 4.1 12:27:40 10° NNE 12:31:44 68° ESE 12:35:34 10° S
STARLINK-1059 4.2 12:28:57 17° SSW 12:31:54 52° SE 12:35:56 10° ENE
SL-4 R/B 2.0 12:29:22 12° NW 12:33:07 86° SW 12:37:31 10° SE
PAYLOAD A 4.4 12:31:25 10° N 12:36:37 48° WNW 12:41:38 10° SW
STARLINK-1057 4.1 12:33:44 16° SSW 12:36:52 58° SE 12:40:56 10° NE
Meteor 2-4 Rocket 3.8 12:31:29 10° S 12:37:23 88° W 12:43:22 10° N
STARLINK-1034 3.9 12:38:30 15° SW 12:41:49 65° SE 12:45:55 10° NE
USA 234 3.8 12:36:23 10° S 12:42:16 36° SW 12:48:10 10° WNW
ATLAS CENTAUR R/B 0.8 12:43:53 33° WNW 12:44:05 34° NW 12:45:58 10° NNE
Cosmos 2237 Rocket 2.1 12:38:36 10° NNW 12:44:14 67° WSW 12:49:51 10° S
Cosmos 1300 Rocket 3.9 12:41:31 10° N 12:45:50 69° E 12:50:06 10° SSE
Cosmos 389 Rocket 2.5 12:43:08 10° SSW 12:46:42 62° W 12:50:15 10° N
STARLINK-1068 3.8 12:43:19 14° SW 12:46:48 73° SE 12:50:56 10° NE
ADEOS 4.2 12:44:29 10° N 12:49:14 37° WNW 12:53:58 10° SW
Cosmos 1484 Rocket 2.7 12:48:27 10° NNE 12:52:20 89° ESE 12:56:07 10° SSW
Nadezhda 4 Rocket 4.0 12:49:30 10° SSW 12:55:45 69° W 13:02:05 10° N
STARLINK-1031 3.6 12:52:17 13° SW 12:55:59 82° NW 13:00:10 10° NE
STARLINK-1060 3.6 12:52:53 12° SW 12:56:45 89° ESE 13:00:54 10° NE
NOSS 3-2 (A) 3.6 12:51:47 12° SW 12:56:55 52° NW 13:03:06 10° NNE
H-2A R/B 2.3 12:53:09 10° N 12:57:21 80° WNW 13:01:20 10° SSW
Cosmos 2219 4.3 12:53:47 14° WSW 12:57:43 27° WNW 13:02:35 10° N
GENESIS II 4.2 12:53:56 10° SW 12:57:58 78° WNW 13:02:04 10° NNE
CZ-4B R/B 3.0 12:54:16 10° N 12:58:27 75° WNW 13:02:48 10° SSW
Cosmos 2279 Rocket 4.5 12:53:15 10° NNW 12:58:53 37° W 13:04:30 10° SSW
NOSS 0 Rocket 4.5 12:55:18 10° NW 13:00:44 34° WSW 13:06:10 10° SSW
STARLINK-1030 3.6 12:57:39 10° SW 13:01:42 83° NW 13:05:51 10° NE
Cosmos 2297 Rocket 3.0 12:57:24 11° WSW 13:02:17 33° WNW 13:07:22 10° N
Cosmos 1048 Rocket 4.0 12:58:13 10° NNW 13:03:32 69° WSW 13:08:50 10° S
ATLAS 5 CENTAUR R/B 1.9 12:58:43 10° SSW 13:05:13 82° SE 13:07:46 10° NE
Cosmos 1125 Rocket 3.9 13:00:50 10° SW 13:05:54 46° WNW 13:11:01 10° N
STARLINK-1020 3.6 13:02:34 10° SW 13:06:42 75° NW 13:10:50 10° NE
Cosmos 494 Rocket 4.3 13:01:59 10° NNW 13:07:15 73° ENE 13:12:30 10° SSE
Cosmos 2263 Rocket 4.4 13:03:21 10° SSE 13:08:02 28° ESE 13:12:47 10° NE
STARLINK-1052 3.7 13:07:34 10° SW 13:11:41 68° NW 13:15:49 10° NE
COSMOS 2428 4.4 13:17:01 10° W 13:18:12 11° W 13:19:22 10° WSW
NOSS 3-2 (C) 3.6 13:17:14 10° SW 13:22:46 54° NW 13:28:59 10° NNE
Centaur D-1A AC-31 4.5 13:54:34 10° WSW 14:49:25 50° S 14:55:53 10° ESE
